Weather reports worldwide

Advertisment
Thomastown, United Kingdom (3901): temperature & dewpoint: 09.09.2019 09:00:00 - 15.09.2019 09:00:00 (BST)Thomastown, United Kingdom (3901): temperature -20cm & temperature -100cm: 09.09.2019 09:00:00 - 15.09.2019 09:00:00 (BST)Thomastown, United Kingdom (3901): wind speed & gusts: 09.09.2019 09:00:00 - 15.09.2019 09:00:00 (BST)Thomastown, United Kingdom (3901): wind direction: 09.09.2019 09:00:00 - 15.09.2019 09:00:00 (BST)Thomastown, United Kingdom (3901): reduced air pressure: 09.09.2019 09:00:00 - 15.09.2019 09:00:00 (BST)Thomastown, United Kingdom (3901): visibility: 09.09.2019 09:00:00 - 15.09.2019 09:00:00 (BST)Thomastown, United Kingdom (3901): sunshine duration: 09.09.2019 09:00:00 - 15.09.2019 09:00:00 (BST)Thomastown, United Kingdom (3901): precipitation: 09.09.2019 09:00:00 - 15.09.2019 09:00:00 (BST)
Date & Time tt [°C] td [°C] tt -20cm [°C] tt -100cm [°C] ff [km/h] ff [kn] fx [km/h] fx [kn] dd ppp [hPa] vv [km] sd [min] rr [mm]
15.09.2019 09:00:00 11,4 10,2 - - 8 4 - - NW 1023,8 18 0 0,0
15.09.2019 08:00:00 11,4 9,9 - - 9 5 - - W 1023,8 12 0 0,0
15.09.2019 07:00:00 11,8 10,5 - - 9 5 - - WNW 1023,8 13 0 0,0
15.09.2019 06:00:00 12,1 11,0 - - 9 5 - - WNW 1023,5 12 0 0,0
15.09.2019 05:00:00 12,3 11,6 - - 9 5 - - WNW 1023,4 14 0 0,0
15.09.2019 04:00:00 12,2 11,6 - - 4 2 - - WNW 1023,5 18 0 0,0
15.09.2019 03:00:00 12,3 11,8 - - 11 6 - - NW 1023,8 30 0 0,0
15.09.2019 02:00:00 13,1 12,7 - - 11 6 - - NW 1023,5 13 0 0,2
15.09.2019 01:00:00 13,6 13,1 - - 15 8 - - WNW 1023,4 5 - 0,6
15.09.2019 00:00:00 14,8 14,4 - - 13 7 - - WSW 1023,0 5 0 0,2
14.09.2019 23:00:00 14,7 14,3 - - 15 8 - - WSW 1023,3 5 0 0,2
14.09.2019 22:00:00 15,1 13,8 - - 26 14 48 26 WSW 1022,8 7 0 0,0
14.09.2019 21:00:00 15,4 13,5 - - 29 16 46 25 SW 1023,0 40 0 0,0
14.09.2019 20:00:00 15,9 13,4 - - 24 13 - - SW 1023,1 30 0 0,0
14.09.2019 19:00:00 16,5 13,3 - - 22 12 48 26 WSW 1023,2 40 6 0,0
14.09.2019 18:00:00 16,8 13,3 - - 24 13 - - SW 1023,5 35 6 0,0
14.09.2019 17:00:00 16,7 13,2 - - 26 14 - - SSW 1024,1 40 18 0,0
14.09.2019 16:00:00 18,2 13,8 - - 24 13 - - SW 1024,9 35 6 0,0
14.09.2019 15:00:00 17,5 13,0 - - 22 12 - - SSW 1025,6 30 0 0,0
14.09.2019 14:00:00 17,2 12,5 - - 22 12 - - SSW 1026,3 35 12 0,0
14.09.2019 13:00:00 14,8 11,6 - - 18 10 - - SSE 1027,3 35 30 0,0
14.09.2019 12:00:00 14,8 10,8 - - 22 12 - - SSW 1028,1 40 60 0,0
14.09.2019 11:00:00 13,2 10,3 - - 21 11 - - S 1028,7 40 24 0,0
14.09.2019 10:00:00 11,3 8,8 15,0 14,7 15 8 - - SSE 1029,1 45 0 0,0
14.09.2019 09:00:00 10,6 8,6 - - 28 15 - - SSW 1029,3 40 0 0,0
14.09.2019 08:00:00 10,1 8,8 - - 16 9 - - SSE 1029,5 30 6 0,0
14.09.2019 07:00:00 10,0 8,6 - - 13 7 - - SSE 1029,7 29 0 0,0
14.09.2019 06:00:00 10,0 9,0 - - 13 7 - - SSE 1030,3 30 0 0,0
14.09.2019 05:00:00 9,6 8,5 - - 11 6 - - SSE 1031,2 25 0 0,0
14.09.2019 04:00:00 9,3 8,2 - - 11 6 - - SSE 1032,0 30 0 0,0
14.09.2019 03:00:00 10,0 8,8 - - 9 5 - - S 1033,1 30 0 0,0
14.09.2019 02:00:00 8,8 8,0 - - 11 6 - - SSE 1033,5 24 0 0,0
14.09.2019 01:00:00 8,6 8,0 - - 5 3 - - SE 1034,4 29 - 0,0
14.09.2019 00:00:00 8,9 8,1 - - 4 2 - - ESE 1034,5 25 0 0,0
13.09.2019 23:00:00 9,2 8,6 - - 5 3 - - S 1034,7 23 0 0,0
13.09.2019 22:00:00 9,6 8,3 - - 2 1 - - NNW 1034,8 30 0 0,0
13.09.2019 21:00:00 10,8 8,6 - - 2 1 - - NE 1034,9 35 0 0,0
13.09.2019 20:00:00 12,8 8,8 - - 4 2 - - N 1035,1 35 6 0,0
13.09.2019 19:00:00 15,3 9,6 - - 4 2 - - N 1035,1 40 48 0,0
13.09.2019 18:00:00 17,0 9,3 - - 5 3 - - NNE 1035,1 35 30 0,0
13.09.2019 17:00:00 17,4 8,3 - - 9 5 - - W 1035,3 45 60 0,0
13.09.2019 16:00:00 17,5 8,8 - - 13 7 - - WSW 1035,7 40 60 0,0
13.09.2019 15:00:00 17,0 9,1 - - 11 6 - - WSW 1035,8 30 60 0,0
13.09.2019 14:00:00 16,6 9,1 - - 13 7 - - W 1036,6 40 54 0,0
13.09.2019 13:00:00 15,4 8,2 - - 13 7 - - W 1036,3 35 48 0,0
13.09.2019 12:00:00 14,9 10,4 - - 13 7 - - WSW 1036,3 16 60 0,0
13.09.2019 11:00:00 13,1 10,2 - - 9 5 - - WSW 1036,1 19 30 0,0
13.09.2019 10:00:00 11,8 10,0 15,0 14,7 5 3 - - S 1036,0 25 48 0,0
13.09.2019 09:00:00 9,8 9,6 - - 8 4 - - SE 1035,6 19 30 0,0
13.09.2019 08:00:00 8,0 7,9 - - 8 4 - - S 1035,3 18 0 0,2
13.09.2019 07:00:00 7,8 7,7 - - 5 3 - - SSW 1034,6 14 0 0,0
13.09.2019 06:00:00 7,6 7,5 - - 8 4 - - SE 1034,0 14 0 0,0
13.09.2019 05:00:00 7,7 7,5 - - 8 4 - - SE 1033,4 18 0 0,0
13.09.2019 04:00:00 8,1 7,9 - - 8 4 - - SSE 1033,1 19 0 0,0
13.09.2019 03:00:00 9,3 8,6 - - 4 2 - - S 1032,5 19 0 0,0
13.09.2019 02:00:00 10,1 8,9 - - 9 5 - - NW 1032,5 5 0 0,0
13.09.2019 01:00:00 10,0 8,7 - - 11 6 - - W 1032,0 24 - 0,0
13.09.2019 00:00:00 10,1 8,2 - - 13 7 - - WSW 1031,5 29 0 0,0
12.09.2019 23:00:00 10,0 7,9 - - 9 5 - - W 1031,1 30 0 0,0
12.09.2019 22:00:00 10,0 8,0 - - 9 5 - - W 1030,5 30 0 0,0
12.09.2019 21:00:00 10,7 8,0 - - 4 2 - - WSW 1029,8 26 0 0,0
12.09.2019 20:00:00 11,8 7,6 - - 9 5 - - W 1028,6 30 36 0,0
12.09.2019 19:00:00 13,8 8,0 - - 15 8 - - WNW 1027,5 45 60 0,0
12.09.2019 18:00:00 14,6 9,0 - - 18 10 - - WNW 1026,5 29 24 0,0
12.09.2019 17:00:00 14,5 8,9 - - 16 9 - - NW 1025,5 40 42 0,0
12.09.2019 16:00:00 15,5 9,1 - - 18 10 - - NW 1024,4 50 18 0,0
12.09.2019 15:00:00 15,0 10,7 - - 21 11 - - NW 1023,4 50 36 0,0
12.09.2019 14:00:00 15,1 12,8 - - 21 11 - - NW 1021,7 50 36 0,4
12.09.2019 13:00:00 14,9 14,0 - - 21 11 - - NW 1020,5 5 6 0,0
12.09.2019 12:00:00 14,3 13,8 - - 18 10 - - NNW 1019,0 4,5 0 0,6
12.09.2019 11:00:00 16,5 16,0 - - 15 8 - - SSW 1017,2 30 0 0,0
12.09.2019 10:00:00 15,5 15,3 15,0 14,7 16 9 - - SSW 1016,7 35 0 0,0
12.09.2019 09:00:00 14,5 14,4 - - 13 7 - - S 1016,6 15 0 0,4
12.09.2019 08:00:00 13,1 13,1 - - 11 6 - - SSE 1016,7 4,2 0 0,2
12.09.2019 07:00:00 12,7 12,5 - - 15 8 - - SSE 1017,0 4,9 0 0,6
12.09.2019 06:00:00 12,6 12,5 - - 11 6 - - SSE 1017,4 4,2 0 0,2
12.09.2019 05:00:00 12,7 12,3 - - 9 5 - - S 1018,1 5 0 0,2
12.09.2019 04:00:00 13,2 11,8 - - 15 8 - - S 1018,4 18 0 0,0
12.09.2019 03:00:00 12,9 11,7 - - 11 6 - - S 1018,7 19 0 0,0
12.09.2019 02:00:00 12,7 11,5 - - 11 6 - - SSW 1019,1 24 0 0,0
12.09.2019 01:00:00 12,6 11,4 - - 5 3 - - SSE 1019,1 27 - 0,0
12.09.2019 00:00:00 12,7 10,9 - - 9 5 - - SSW 1019,2 35 0 0,0
11.09.2019 23:00:00 12,8 10,6 - - 9 5 - - SSW 1019,3 45 0 0,0
11.09.2019 22:00:00 12,7 11,0 - - 8 4 - - WSW 1019,4 35 0 0,0
11.09.2019 21:00:00 12,9 10,9 - - 9 5 - - W 1019,0 23 0 0,0
11.09.2019 20:00:00 13,7 10,4 - - 9 5 - - W 1018,6 26 0 0,0
11.09.2019 19:00:00 14,3 10,7 - - 8 4 - - W 1018,2 26 0 0,0
11.09.2019 18:00:00 14,5 10,2 - - 11 6 - - WSW 1017,8 30 12 0,0
11.09.2019 17:00:00 15,6 9,8 - - 16 9 - - W 1017,4 35 24 0,0
11.09.2019 16:00:00 15,4 11,0 - - 18 10 - - WNW 1016,8 20 12 0,0
11.09.2019 15:00:00 16,8 10,6 - - 22 12 - - W 1016,1 40 36 0,0
11.09.2019 14:00:00 15,6 10,8 - - 18 10 - - W 1016,0 29 6 0,0
11.09.2019 13:00:00 15,6 10,5 - - 15 8 - - W 1015,3 30 24 0,0
11.09.2019 12:00:00 14,3 11,2 - - 21 11 46 25 W 1014,9 35 6 0,0
11.09.2019 11:00:00 14,4 10,5 - - 21 11 - - W 1014,0 20 30 0,0
11.09.2019 10:00:00 14,2 11,0 14,7 14,7 21 11 - - W 1013,3 16 30 0,0
11.09.2019 09:00:00 13,0 11,1 - - 13 7 - - WSW 1012,8 17 6 0,0
11.09.2019 08:00:00 12,8 11,3 - - 16 9 - - WSW 1012,0 6 0 0,0
11.09.2019 07:00:00 12,6 10,8 - - 16 9 - - W 1011,0 18 0 0,0
11.09.2019 06:00:00 13,2 11,9 - - 15 8 - - WSW 1010,2 13 0 0,0
11.09.2019 05:00:00 12,8 11,6 - - 4 2 - - SW 1009,7 30 0 0,0
11.09.2019 04:00:00 13,5 12,9 - - 15 8 50 27 WNW 1009,0 50 0 1,0
11.09.2019 03:00:00 15,9 15,2 - - 16 9 - - SW 1008,4 45 0 0,8
11.09.2019 02:00:00 16,0 15,2 - - 18 10 - - SW 1008,8 5 0 0,4
11.09.2019 01:00:00 15,9 15,2 - - 13 7 - - SSW 1009,1 18 - 1,6
11.09.2019 00:00:00 16,0 15,3 - - 18 10 - - SSW 1009,2 14 0 0,0
10.09.2019 23:00:00 15,8 15,4 - - 15 8 - - SSW 1009,8 50 0 0,0
10.09.2019 22:00:00 14,8 14,5 - - 24 13 - - SSW 1010,7 45 0 0,0
10.09.2019 21:00:00 14,0 13,5 - - 29 16 46 25 SSW 1011,0 6 0 0,4
10.09.2019 20:00:00 13,2 12,7 - - 28 15 50 27 S 1011,3 14 0 0,2
10.09.2019 19:00:00 13,1 12,4 - - 21 11 - - S 1012,5 22 0 0,2
10.09.2019 18:00:00 12,8 12,0 - - 18 10 - - SSE 1013,5 15 0 0,2
10.09.2019 17:00:00 12,7 12,1 - - 24 13 - - S 1014,4 15 0 0,6
10.09.2019 16:00:00 12,5 11,6 - - 15 8 - - S 1015,9 19 0 0,0
10.09.2019 15:00:00 11,9 10,8 - - 18 10 - - S 1016,7 29 0 0,2
10.09.2019 14:00:00 12,4 10,8 - - 18 10 - - S 1017,4 20 0 0,6
10.09.2019 13:00:00 12,7 11,1 - - 15 8 - - SSW 1018,3 16 0 0,2
10.09.2019 12:00:00 12,7 10,1 - - 15 8 - - S 1018,6 28 0 0,0
10.09.2019 11:00:00 12,3 9,5 - - 16 9 - - SSW 1018,8 27 6 0,0
10.09.2019 10:00:00 11,1 10,5 15,0 14,7 9 5 - - S 1019,3 20 54 0,0
10.09.2019 09:00:00 8,6 8,6 - - 8 4 - - SSE 1020,0 17 12 0,2
10.09.2019 08:00:00 7,3 7,3 - - 5 3 - - SE 1019,9 14 0 0,0
10.09.2019 07:00:00 6,4 6,4 - - 8 4 - - SE 1019,6 10 0 0,0
10.09.2019 06:00:00 5,3 5,3 - - 5 3 - - S 1019,4 0,6 0 0,0
10.09.2019 05:00:00 5,7 5,7 - - 5 3 - - SE 1019,1 0,2 0 0,0
10.09.2019 04:00:00 6,6 6,5 - - 4 2 - - ESE 1019,4 10 0 0,0
10.09.2019 03:00:00 6,2 6,1 - - 4 2 - - WSW 1019,6 15 0 0,0
10.09.2019 02:00:00 6,3 6,2 - - 5 3 - - W 1019,3 12 0 0,0
10.09.2019 01:00:00 6,3 6,0 - - 4 2 - - WNW 1019,3 12 - 0,0
10.09.2019 00:00:00 7,1 6,5 - - 2 1 - - NW 1018,8 14 0 0,0
09.09.2019 23:00:00 8,3 7,5 - - 4 2 - - WNW 1018,5 20 0 0,0
09.09.2019 22:00:00 9,4 8,1 - - 8 4 - - NW 1018,2 23 0 0,0
09.09.2019 21:00:00 10,8 8,0 - - 9 5 - - NW 1017,5 25 0 0,0
09.09.2019 20:00:00 12,0 7,6 - - 13 7 - - NW 1016,8 29 18 0,0
09.09.2019 19:00:00 12,8 7,7 - - 15 8 - - NNW 1015,8 35 18 0,0
09.09.2019 18:00:00 13,6 7,4 - - 18 10 - - NNW 1014,9 40 36 0,0
09.09.2019 17:00:00 14,7 9,1 - - 18 10 - - NNW 1014,0 18 54 0,0
09.09.2019 16:00:00 14,1 8,6 - - 18 10 - - NNW 1013,6 35 36 0,0
09.09.2019 15:00:00 15,5 10,5 - - 21 11 - - NW 1012,8 30 54 0,0
09.09.2019 14:00:00 14,3 10,2 - - 16 9 - - NW 1012,4 35 36 0,0
09.09.2019 13:00:00 13,7 10,4 - - 13 7 46 25 NNW 1012,2 40 30 0,4
09.09.2019 12:00:00 12,9 9,4 - - 16 9 - - NW 1011,8 45 30 0,0
09.09.2019 11:00:00 13,2 9,8 - - 13 7 - - NW 1011,6 30 30 0,0
09.09.2019 10:00:00 12,6 10,2 15,2 14,9 16 9 - - NW 1011,2 40 54 0,0
09.09.2019 09:00:00 11,5 10,3 - - 9 5 - - NW 1011,0 26 48 0,0

tt = temperature
td = dewpoint
tt -20cm = temperature -20cm
tt -100cm = temperature -100cm
ff = wind speed
fx = gusts
dd = wind direction
ppp = reduced air pressure
vv = visibility
sd = sunshine duration
rr = precipitation

Next stations